Location: Pian di Sc�
(43.6333°N, 11.5500°E)
Time: 13:27:03
(UTC+00:00)

Cosmos 1455 Rocket - Pass Details

Date: 07 August 2020
Orbit: 604 x 630 km, 82.5° (Epoch: 25 September)

Event Time Altitude Azimuth Distance (km) Brightness Sun altitude
Exits shadow 01:34:24 37° 141° (SE) 966 3.9 -22.6°
Maximum altitude 01:35:39 50° 93° (E) 802 3.7 -22.4°
Drops below altitude 10° 01:39:57 10° 19° (NNE) 2,010 6.7 -22.0°
Sets 01:42:15 0° 14° (NNE) 2,925 7.7 -21.7°
